Regional Weather Roundup
Issued by NWS Portland, ME

Current Version | Previous Version | Text Only | Print | Product List | Glossary Off
Versions: 1 2 3 4 5 6 7 8 9 10 11 12 13 14 15 16 17 18 19 20 21 22 23 24 25 26 27 28 29 30 31 32 33 34 35 36 37 38 39 40 41 42 43 44 45 46 47 48 49 50
473 ASUS41 KGYX 220910 RWRGYX WEATHER ROUNDUP FOR MAINE AND NEW HAMPSHIRE NATIONAL WEATHER SERVICE GRAY ME 500 AM EDT MON OCT 22 2018 MEZ002-005-006-010-012-015-018-020-021-024-026-027-029-221000- MAINE CITY SKY/WX TMP DP RH WIND PRES REMARKS PORTLAND CLOUDY 31 23 72 SW6 30.07R SANFORD FAIR 31 23 72 SW5 30.08R BAR HARBOR FAIR 32 23 69 W6 30.01R WISCASSET FAIR 29 24 82 CALM 30.06R ROCKLAND MOCLDY 27 25 92 CALM 30.03R FRYEBURG FAIR 34 17 50 VRB6G18 30.04R LEWISTONAUBURN FAIR 35 17 47 NW5 30.04R AUGUSTA CLOUDY 35 19 52 VRB7 30.02R WATERVILLE MOCLDY 35 18 49 NW7 29.99R BANGOR FAIR 29 21 72 SW3 30.00R GREENVILLE N/A 28 19 69 NW13G25 29.89R WCI 17 MILLINOCKET FAIR 32 18 56 W10G20 29.95R HOULTON FAIR 27 19 72 W7 29.89R PRESQUE ISLE FAIR 26 19 74 W6 29.87S FRENCHVILLE FAIR 25 13 60 W8 29.81S CARIBOU CLOUDY 27 17 66 W5 29.85R $$ NHZ002-005-008-009-011-012-014-221000- NEW HAMPSHIRE CITY SKY/WX TMP DP RH WIND PRES REMARKS PORTSMOUTH MOCLDY 33 20 58 SW6 30.08R ROCHESTER FAIR 33 19 56 CALM 30.07S NASHUA FAIR 23 21 92 CALM 30.12 MANCHESTER FAIR 30 21 69 S3 30.09S CONCORD FAIR 27 18 69 CALM 30.09S LACONIA FAIR 33 17 51 W5 30.07S PLYMOUTH CLOUDY 32 19 58 W5 30.07R BERLIN CLOUDY 31 21 66 NW9 30.01S WHITEFIELD CLOUDY 32 21 64 VRB5 30.04S JAFFREY FAIR 32 19 58 W6 30.08R KEENE FAIR 23 22 96 CALM 30.11S LEBANON CLOUDY 27 20 75 S3 30.09S MT WASHINGTON SNOW 7 7 100 NW63G70 N/A VSB 1/16WCI -24 $$ VTZ005-007-008-221000- VERMONT CITY SKY/WX TMP DP RH WIND PRES REMARKS ST JOHNSBURY N/A 33 23 66 MISG 30.05S MONTPELIER CLOUDY 32 18 56 W9 30.09S BURLINGTON CLOUDY 37 19 48 NW6 30.11R $$ MAZ007-012-024-CTZ003-RIZ002-NYZ038-NYZ072-221000- SOUTHERN NEW ENGLAND AND NY CITY SKY/WX TMP DP RH WIND PRES REMARKS BOSTON FAIR 37 21 52 W6 30.14R WORCESTER FAIR 26 20 77 SW6 30.09R NANTUCKET FAIR 38 20 48 NW18 30.15R PROVIDENCE FAIR 30 25 81 W3 30.16R HARTFORD FAIR 29 26 89 SW5 30.15R ALBANY CLOUDY 37 30 75 SW5 30.15S NEW YORK CITY FAIR 43 26 51 W10 30.21R $$ ANZ081-ANZ082-ANZ150-NHZ014-MEZ023>029-221000- COASTAL MARINE OBSERVATIONS STATION/POSITION TIME TEMP WIND PRES WAVE AIR SEA DIR/SP/G HT/PER (UTC) (F) (DEG/KT/KT) (MB) (FT/S) JEFFREYS LEDGE 0806 55 N/A 4/ 5 $$ .............KEY.............. WCI - WIND CHILL TC - TEMPERATURE IN CELSIUS VSB - VISIBILITY IN MILES HX - HEAT INDEX FAIR- INDICATES FEW OR NO CLOUDS BELOW 12,000 FT, WITH NO SIGNIFICANT WEATHER AND/OR OBSTRUCTIONS TO VISIBILITY.

USA.gov is the U.S. government's official web portal to all federal, state and local government web resources and services.